Weather History for KBLM - October, 2012

Change the Weather History Date:

Tuesday, October 16, 2012

  Actual Average (KEWR) Record (KEWR)
Temperature  
Mean Temperature 51 °F 56 °F  
Max Temperature 60 °F 65 °F 84 °F (1958)
Min Temperature 42 °F 48 °F 31 °F (1944)
Degree Days  
Heating Degree Days 14 9  
Month to date heating degree days 108  
Since 1 July heating degree days 153  
Cooling Degree Days 0 0  
Month to date cooling degree days 14  
Year to date cooling degree days 1188  
Growing Degree Days 1 (Base 50)    
Moisture  
Dew Point 41 °F    
Average Humidity 62    
Maximum Humidity 88    
Minimum Humidity 39    
Precipitation  
Precipitation 0.00 in 0.11 in 1.42 in (1974)
Month to date precipitation 1.89  
Year to date precipitation 37.08  
Snow  
Snow 0.00 in 0.00 in 0.00 in (2001)
Month to date snowfall 0.0  
Since 1 July snowfall 0.0  
Snow Depth -    
Sea Level Pressure  
Sea Level Pressure 29.80 in    
Wind  
Wind Speed 10 mph (WNW)    
Max Wind Speed 23 mph    
Max Gust Speed 31 mph    
Visibility 10 miles    
Events      
T = Trace of Precipitation, MM = Missing Value Source: NWS Daily Summary

Daily Weather History Graph

Daily Weather History Graph

Search for Another Location

Airport or City:

Trip Planner

Search our weather history database for the weather conditions in past years. The results will help you decide how hot, cold, wet, or windy it might be!

Date:

Astronomy

Oct. 16, 2012 Rise Set
Actual Time 7:08 AM EDT 6:14 PM EDT
Civil Twilight 6:41 AM EDT 6:41 PM EDT
Nautical Twilight 6:09 AM EDT 7:13 PM EDT
Astronomical Twilight 5:38 AM EDT 7:44 PM EDT
Moon 8:28 AM EDT (10/16) 6:56 PM EDT (10/16)
Length of Visible Light 12h 00m
Length of Day
11h 05m
New Moon, 2% of the Moon is Illuminated
Oct 16
New Moon
Oct 21
First Quarter
Oct 29
Full
Nov 6
Last Quarter
Nov 13
New

Hourly Weather History & Observations

Time (EDT) Temp. Windchill Dew Point Humidity Pressure Visibility Wind Dir Wind Speed Gust Speed Precip Events Conditions
12:15 AM 60.8 °F - 57.2 °F 88% 29.71 in 10.0 mi WSW 5.8 mph - N/A   Overcast
12:35 AM 60.8 °F - 57.2 °F 88% 29.69 in 10.0 mi WSW 4.6 mph - N/A   Overcast
12:55 AM 59.0 °F - 55.4 °F 88% 29.70 in 10.0 mi West 8.1 mph - N/A   Overcast
1:15 AM 59.0 °F - 53.6 °F 82% 29.71 in 10.0 mi WNW 10.4 mph 17.3 mph N/A   Overcast
1:35 AM 57.2 °F - 51.8 °F 82% 29.70 in 10.0 mi NW 10.4 mph - N/A   Overcast
1:55 AM 57.2 °F - 51.8 °F 82% 29.69 in 10.0 mi WNW 11.5 mph - N/A   Overcast
2:15 AM 57.2 °F - 50.0 °F 77% 29.69 in 10.0 mi WNW 12.7 mph - N/A   Overcast
2:35 AM 57.2 °F - 48.2 °F 72% 29.70 in 10.0 mi WNW 11.5 mph 19.6 mph N/A   Overcast
2:55 AM 55.4 °F - 46.4 °F 72% 29.69 in 10.0 mi NW 13.8 mph 17.3 mph N/A   Overcast
3:15 AM 55.4 °F - 46.4 °F 72% 29.68 in 10.0 mi NW 12.7 mph 18.4 mph N/A   Scattered Clouds
3:35 AM 53.6 °F - 46.4 °F 77% 29.69 in 10.0 mi WNW 11.5 mph - N/A   Clear
3:55 AM 53.6 °F - 44.6 °F 72% 29.70 in 10.0 mi WNW 12.7 mph 17.3 mph N/A   Clear
4:15 AM 53.6 °F - 44.6 °F 72% 29.70 in 10.0 mi WNW 10.4 mph - N/A   Clear
4:35 AM 53.6 °F - 44.6 °F 72% 29.70 in 10.0 mi WNW 10.4 mph - N/A   Clear
4:55 AM 51.8 °F - 44.6 °F 76% 29.71 in 10.0 mi WNW 9.2 mph - N/A   Clear
5:15 AM 51.8 °F - 44.6 °F 76% 29.72 in 10.0 mi WNW 10.4 mph - N/A   Clear
5:35 AM 51.8 °F - 44.6 °F 76% 29.73 in 10.0 mi WNW 8.1 mph - N/A   Clear
5:55 AM 50.0 °F - 44.6 °F 82% 29.73 in 10.0 mi WNW 8.1 mph - N/A   Clear
6:15 AM 50.0 °F - 42.8 °F 76% 29.74 in 10.0 mi West 8.1 mph - N/A   Clear
6:35 AM 48.2 °F - 42.8 °F 82% 29.75 in 10.0 mi West 8.1 mph - N/A   Clear
6:55 AM 48.2 °F - 42.8 °F 82% 29.76 in 10.0 mi WNW 9.2 mph - N/A   Clear
7:15 AM 48.2 °F - 42.8 °F 82% 29.77 in 10.0 mi West 8.1 mph - N/A   Clear
7:35 AM 50.0 °F - 42.8 °F 76% 29.78 in 10.0 mi WNW 12.7 mph - N/A   Scattered Clouds
7:55 AM 51.8 °F - 41.0 °F 67% 29.79 in 10.0 mi NW 16.1 mph 21.9 mph N/A   Scattered Clouds
8:15 AM 51.8 °F - 39.2 °F 62% 29.79 in 10.0 mi NW 11.5 mph 17.3 mph N/A   Partly Cloudy
8:55 AM 53.6 °F - 37.4 °F 54% 29.80 in 10.0 mi WNW 16.1 mph - N/A   Clear
9:15 AM 53.6 °F - 37.4 °F 54% 29.81 in 10.0 mi WNW 16.1 mph 20.7 mph N/A   Clear
9:35 AM 53.6 °F - 37.4 °F 54% 29.81 in 10.0 mi WNW 17.3 mph 27.6 mph N/A   Clear
9:55 AM 55.4 °F - 37.4 °F 51% 29.81 in 10.0 mi NNW 16.1 mph 24.2 mph N/A   Clear
10:15 AM 55.4 °F - 37.4 °F 51% 29.81 in 10.0 mi WNW 16.1 mph 23.0 mph N/A   Clear
10:35 AM 55.4 °F - 37.4 °F 51% 29.81 in 10.0 mi WNW 16.1 mph 28.8 mph N/A   Clear
10:55 AM 55.4 °F - 37.4 °F 51% 29.81 in 10.0 mi WNW 12.7 mph - N/A   Partly Cloudy
11:15 AM 57.2 °F - 37.4 °F 48% 29.82 in 10.0 mi WNW 18.4 mph 23.0 mph N/A   Partly Cloudy
11:35 AM 57.2 °F - 35.6 °F 44% 29.81 in 10.0 mi NNW 23.0 mph 31.1 mph N/A   Clear
11:55 AM 57.2 °F - 37.4 °F 48% 29.82 in 10.0 mi NW 18.4 mph 26.5 mph N/A   Clear
12:15 PM 57.2 °F - 37.4 °F 48% 29.82 in 10.0 mi NW 18.4 mph 26.5 mph N/A   Clear
12:35 PM 59.0 °F - 37.4 °F 45% 29.81 in 10.0 mi NW 17.3 mph 27.6 mph N/A   Clear
12:55 PM 59.0 °F - 35.6 °F 42% 29.81 in 10.0 mi WNW 21.9 mph 26.5 mph N/A   Clear
1:15 PM 59.0 °F - 35.6 °F 42% 29.81 in 10.0 mi NW 17.3 mph 27.6 mph N/A   Clear
1:35 PM 60.8 °F - 35.6 °F 39% 29.80 in 10.0 mi WNW 19.6 mph 31.1 mph N/A   Clear
1:55 PM 60.8 °F - 35.6 °F 39% 29.80 in 10.0 mi NW 18.4 mph 26.5 mph N/A   Clear
2:15 PM 60.8 °F - 35.6 °F 39% 29.80 in 10.0 mi WNW 18.4 mph - N/A   Clear
2:35 PM 60.8 °F - 37.4 °F 42% 29.80 in 10.0 mi WNW 16.1 mph 19.6 mph N/A   Clear
2:55 PM 60.8 °F - 35.6 °F 39% 29.80 in 10.0 mi NW 15.0 mph - N/A   Clear
3:15 PM 60.8 °F - 35.6 °F 39% 29.80 in 10.0 mi WNW 15.0 mph 26.5 mph N/A   Clear
3:35 PM 60.8 °F - 35.6 °F 39% 29.80 in 10.0 mi NW 15.0 mph 24.2 mph N/A   Clear
3:55 PM 60.8 °F - 35.6 °F 39% 29.80 in 10.0 mi NW 15.0 mph 23.0 mph N/A   Clear
4:15 PM 60.8 °F - 35.6 °F 39% 29.81 in 10.0 mi NW 11.5 mph 20.7 mph N/A   Clear
4:35 PM 59.0 °F - 35.6 °F 42% 29.81 in 10.0 mi WNW 13.8 mph 20.7 mph N/A   Clear
4:55 PM 59.0 °F - 33.8 °F 39% 29.81 in 10.0 mi NW 13.8 mph - N/A   Clear
5:15 PM 57.2 °F - 35.6 °F 44% 29.82 in 10.0 mi NW 11.5 mph 19.6 mph N/A   Clear
5:35 PM 57.2 °F - 35.6 °F 44% 29.83 in 10.0 mi NW 11.5 mph - N/A   Clear
5:55 PM 55.4 °F - 35.6 °F 47% 29.83 in 10.0 mi NW 8.1 mph - N/A   Clear
6:15 PM 55.4 °F - 35.6 °F 47% 29.84 in 10.0 mi NW 6.9 mph - N/A   Clear
6:35 PM 53.6 °F - 37.4 °F 54% 29.85 in 10.0 mi NNW 5.8 mph - N/A   Clear
6:55 PM 53.6 °F - 37.4 °F 54% 29.85 in 10.0 mi Calm Calm - N/A   Clear
7:15 PM 51.8 °F - 37.4 °F 58% 29.86 in 10.0 mi Calm Calm - N/A   Clear
7:35 PM 50.0 °F - 37.4 °F 62% 29.87 in 10.0 mi NW 5.8 mph - N/A   Clear
7:55 PM 50.0 °F - 37.4 °F 62% 29.88 in 10.0 mi SW 3.5 mph - N/A   Clear
8:15 PM 48.2 °F - 37.4 °F 66% 29.88 in 10.0 mi Calm Calm - N/A   Clear
8:35 PM 48.2 °F - 39.2 °F 71% 29.89 in 10.0 mi Calm Calm - N/A   Clear
8:55 PM 48.2 °F - 39.2 °F 71% 29.89 in 10.0 mi Calm Calm - N/A   Clear
9:15 PM 46.4 °F 45.2 °F 37.4 °F 71% 29.89 in 10.0 mi WSW 3.5 mph - N/A   Clear
9:35 PM 46.4 °F - 39.2 °F 76% 29.90 in 10.0 mi Calm Calm - N/A   Clear
9:55 PM 44.6 °F - 39.2 °F 81% 29.90 in 10.0 mi Calm Calm - N/A   Clear
10:15 PM 46.4 °F - 39.2 °F 76% 29.91 in 10.0 mi Calm Calm - N/A   Clear
10:35 PM 44.6 °F - 39.2 °F 81% 29.91 in 10.0 mi Calm Calm - N/A   Clear
10:55 PM 44.6 °F - 39.2 °F 81% 29.92 in 10.0 mi Calm Calm - N/A   Clear
11:35 PM 42.8 °F 38.6 °F 39.2 °F 87% 29.92 in 10.0 mi NW 6.9 mph - N/A   Clear
11:55 PM 42.8 °F 41.1 °F 37.4 °F 81% 29.93 in 10.0 mi NNW 3.5 mph - N/A   Clear